COSMOS 2366

Satellite information

Favourite Embed

Satellite Type and Status

PAYLOADIN ORBIT

Key statistics

Satellite COSMOS 2366 at a glance.

Uptime

9606

Days in orbit

Revolutions

≈ 13.7

Per day

Orbit

LEO

Low Earth Orbit

Inclination

82.9

Latest

Satellite identification and parameters

Extended collection of information and parameters for COSMOS 2366.

Object identification

Identified? True

Debris? False

Object name: COSMOS 2366

International designator: 1999-045A

Object number (NORAD): 25892

Object ID (CCSDS): 25892

Country: COMMONWEALTH OF INDEPENDENT STATES (CIS)

Current information (Y/N): Y

RCS size: LARGE

Orbital parameters

Period: 104.752 minutes

Inclination: 82.9296 deg

SMA: 7360.969 km

Apoapsis: 1006.353 km

Periapsis: 959.316 km

RAAN: 262.812 deg

Eccentricy: 0.00319501

Argument of periapsis: 156.7564 deg

Mean anomaly: 324.9623 deg

Mean motion: 13.74675727 rev/day

Mean motion (dot): 0.00000088 rev/day2

B* drag term: 0.000076224316 1/REarth

Two-line elements (TLE)

Creation date: Dec. 12, 2025, 10:14 a.m.

Reference frame: TEME

Reference center: EARTH

Epoch: Dec. 12, 2025, 7:38 a.m. UTC

TLE line 0: 0 COSMOS 2366

TLE line 1: 1 25892U 99045A 25346.31857032 .00000088 00000-0 76224-4 0 9993

TLE line 2: 2 25892 82.9296 262.8120 0031950 156.7564 324.9623 13.74675727319277

Live tracking on map

Real-time ground track for satellite COSMOS 2366.

In-orbit conjunctions

A list of the most updated potential collisions computed for object COSMOS 2366.

Target Orbit TCA Probability of collision Miss distance Type
PEGASUS DEB LEO 2025-04-18 04:13:51 0.0005000824 130.0 (m) DEBRIS
FENGYUN 1C DEB SSO 2025-01-08 23:38:12 0.0001411713 117.0 (m) DEBRIS

Associated space launch

Navigation satellite providing location information for the Tsiklon-B navigation system

COSMOS 2366 was lifted into orbit during the mission ‘Kosmos-3M | Parus 91’, on board a Kosmos-3M space rocket.

The launch took place on Aug. 26, 1999, 12:02 p.m. from 132/1 (132L).

For more information about the launch, click the button.

Launch to space Kosmos-3M | Parus 91
Kosmos-3M | Parus 91

Agency: N/A

Status: Launch Successful

Launch date: Aug. 26, 1999, 12:02 p.m. UTC

Rocket: Kosmos-3M

Launch pad: 132/1 (132L)

Location: Plesetsk Cosmodrome, Russian Federation

...

Latest news about this satellite

There are no fresh news available about this satellite. Check back as we update our databases every day.


Newsletter sign-up

Weekly statistics, charts and insights to help you stay on top of the space industry.